Mountain Home, AR

9:49 PM CST on February 21, 2018 (GMT -0600)
Baxter County Regional

Weather History for KBPK - October, 2013

Change the Weather History Date:

Thursday, October 3, 2013

  Actual Average (KFLP) Record (KFLP)
Temperature  
Mean Temperature 73 °F -  
Max Temperature 82 °F 73 °F 89 °F (2006)
Min Temperature 64 °F 49 °F 37 °F (2004)
Cooling Degree Days 8    
Growing Degree Days 23 (Base 50)    
Moisture  
Dew Point 65 °F    
Average Humidity 83    
Maximum Humidity 100    
Minimum Humidity 58    
Precipitation  
Precipitation 0.01 in - - ()
Sea Level Pressure  
Sea Level Pressure 29.95 in    
Wind  
Wind Speed 4 mph (SE)    
Max Wind Speed 12 mph    
Max Gust Speed 16 mph    
Visibility 6 miles    
Events Thunderstorm    
Averages and records for this station are not official NWS values.
T = Trace of Precipitation, MM = Missing Value Source: NWS Daily Summary

Daily Weather History Graph

Daily Weather History Graph

Search for Another Location

Airport or City:

Trip Planner

Search our weather history database for the weather conditions in past years. The results will help you decide how hot, cold, wet, or windy it might be!

Date:

Astronomy

Oct. 03, 2013 Rise Set
Actual Time 7:06 AM CDT 6:50 PM CDT
Civil Twilight 6:41 AM CDT 7:15 PM CDT
Nautical Twilight 6:11 AM CDT 7:45 PM CDT
Astronomical Twilight 5:41 AM CDT 8:15 PM CDT
Moon 5:42 AM CDT (10/3) 5:58 PM CDT (10/3)
Length of Visible Light 12h 34m
Length of Day
11h 43m
Waning Crescent, 2% of the Moon is Illuminated
Oct 3
Waning Crescent
Oct 4
New
Oct 11
First Quarter
Oct 18
Full
Oct 26
Last Quarter

Hourly Weather History & Observations

Time (CDT) Temp. Heat Index Dew Point Humidity Pressure Visibility Wind Dir Wind Speed Gust Speed Precip Events Conditions
12:53 AM 66.0 °F - 64.0 °F 93% 29.96 in 8.0 mi SSE 4.6 mph - N/A   Clear
1:53 AM 66.0 °F - 63.0 °F 90% 29.96 in 9.0 mi SSE 5.8 mph - N/A   Clear
2:53 AM 66.0 °F - 63.0 °F 90% 29.95 in 8.0 mi ESE 4.6 mph - N/A   Clear
3:53 AM 64.0 °F - 62.1 °F 93% 29.95 in 7.0 mi Calm Calm - N/A   Clear
4:51 AM 64.4 °F - 62.6 °F 94% 29.98 in 5.0 mi Calm Calm - N/A   Mostly Cloudy
4:53 AM 64.9 °F - 63.0 °F 93% 29.95 in 6.0 mi Calm Calm - N/A   Mostly Cloudy
5:22 AM 64.4 °F - 62.6 °F 94% 29.97 in 6.0 mi Calm Calm - 0.01 in   Mostly Cloudy
5:53 AM 64.9 °F - 63.0 °F 93% 29.96 in 5.0 mi NE 3.5 mph - 0.01 in   Mostly Cloudy
6:06 AM 64.4 °F - 62.6 °F 94% 29.98 in 3.0 mi ENE 3.5 mph - N/A   Scattered Clouds
6:13 AM 64.4 °F - 62.6 °F 94% 29.98 in 3.0 mi Calm Calm - N/A   Mostly Cloudy
6:20 AM 64.4 °F - 62.6 °F 94% 29.98 in 2.5 mi Calm Calm - N/A   Mostly Cloudy
6:29 AM 64.4 °F - 62.6 °F 94% 29.98 in 3.0 mi Calm Calm - N/A   Scattered Clouds
6:39 AM 64.4 °F - 62.6 °F 94% 29.98 in 1.8 mi ENE 3.5 mph - N/A   Scattered Clouds
6:53 AM 64.9 °F - 63.0 °F 93% 29.96 in 3.0 mi Calm Calm - N/A   Partly Cloudy
7:03 AM 64.4 °F - 62.6 °F 94% 29.99 in 1.8 mi Calm Calm - N/A   Scattered Clouds
7:11 AM 64.4 °F - 62.6 °F 94% 29.98 in 0.8 mi ENE 3.5 mph - N/A   Mist
7:15 AM 64.4 °F - 62.6 °F 94% 29.99 in 1.2 mi ENE 3.5 mph - N/A   Partly Cloudy
7:27 AM 64.4 °F - 64.4 °F 100% 29.98 in 3.0 mi Calm Calm - N/A   Partly Cloudy
7:53 AM 66.0 °F - 64.9 °F 96% 29.96 in 4.0 mi East 4.6 mph - N/A   Clear
8:53 AM 72.0 °F - 68.0 °F 87% 29.97 in 7.0 mi SE 6.9 mph - N/A   Overcast
9:53 AM 73.0 °F - 68.0 °F 84% 29.97 in 7.0 mi SSE 10.4 mph - N/A   Scattered Clouds
10:07 AM 71.6 °F - 68.0 °F 88% 30.00 in 7.0 mi South 9.2 mph - N/A   Mostly Cloudy
10:53 AM 73.0 °F - 68.0 °F 84% 29.97 in 7.0 mi South 6.9 mph - N/A   Scattered Clouds
11:53 AM 75.0 °F - 68.0 °F 79% 29.96 in 7.0 mi SSE 6.9 mph - N/A   Mostly Cloudy
12:24 PM 77.0 °F - 69.8 °F 78% 29.97 in 8.0 mi Variable 6.9 mph - N/A   Mostly Cloudy
12:53 PM 79.0 °F - 68.0 °F 69% 29.94 in 8.0 mi South 9.2 mph - N/A   Mostly Cloudy
1:08 PM 82.4 °F 86.3 °F 69.8 °F 66% 29.96 in 9.0 mi South 11.5 mph - N/A   Mostly Cloudy
1:17 PM 82.4 °F 86.3 °F 69.8 °F 66% 29.95 in 9.0 mi Variable 5.8 mph 16.1 mph N/A Thunderstorm Mostly Cloudy
1:45 PM 80.6 °F 82.7 °F 66.2 °F 61% 29.94 in 9.0 mi South 9.2 mph - N/A   Mostly Cloudy
1:53 PM 82.0 °F 84.9 °F 68.0 °F 62% 29.91 in 9.0 mi South 10.4 mph - N/A   Mostly Cloudy
2:53 PM 82.0 °F 85.5 °F 69.1 °F 65% 29.89 in 8.0 mi Variable 4.6 mph - N/A   Clear
3:53 PM 82.9 °F 85.4 °F 66.9 °F 58% 29.88 in 9.0 mi South 5.8 mph - N/A   Scattered Clouds
4:53 PM 81.0 °F 83.0 °F 66.0 °F 60% 29.88 in 9.0 mi South 6.9 mph - N/A   Mostly Cloudy
5:53 PM 80.1 °F 82.1 °F 66.0 °F 62% 29.88 in 9.0 mi South 8.1 mph - N/A   Clear
6:53 PM 77.0 °F - 66.0 °F 69% 29.88 in 9.0 mi South 4.6 mph - N/A   Clear
7:53 PM 73.9 °F - 66.0 °F 76% 29.89 in 10.0 mi SSE 5.8 mph - N/A   Clear
8:53 PM 73.0 °F - 68.0 °F 84% 29.90 in 9.0 mi SE 4.6 mph - N/A   Clear
9:53 PM 72.0 °F - 68.0 °F 87% 29.91 in 8.0 mi SSE 5.8 mph - N/A   Clear
11:53 PM 71.1 °F - 66.9 °F 87% 29.92 in 8.0 mi SSE 4.6 mph - N/A   Clear